Home > Weather > Brampton > Past weeks

Flag for Canada Weather for the Past 2 Weeks in Brampton, Ontario, Canada

Now
12 °F

Passing clouds.


Feels Like: -6 °F
Forecast: N/A
Wind: 20 mph from Northwest

Location: Toronto Pearson International Airport

Current Time: Feb 11, 2016 at 4:50:00 PM

Latest Report: Feb 11, 2016 at 4:00 PM


Visibility: 15 mi

Pressure: 30.16 "Hg

Humidity: 48%

Dew point: -4 °F

Location of BramptonLocation

Historic Weather in Brampton — Graph

°F

Brampton Temperature Yesterday

Maximum temperature yesterday: 30 °F (at 1:00 AM)
Minimum temperature yesterday: 14 °F (at 11:00 PM)
Average temperature yesterday: 23 °F

High & Low Weather Summary for the Past Weeks

 TemperatureHumidityPressure
High61 °F (Feb 3, 2:00 PM)100% (Feb 3, 7:00 AM)30.36 "Hg (Feb 3, 7:00 AM)
Low3 °F (Feb 11, 7:00 AM)39% (Feb 3, 4:00 PM)29.44 "Hg (Jan 31, 11:00 PM)
Average32 °F72%29.86 "Hg
* Reported Jan 27 3:00 PM — Feb 11 3:00 PM, Brampton, Weather by CustomWeather, © 2016

Note: Actual official high and low records may vary slightly from our data, if they occured in-between our weather recording intervals... More about our weather records

Advertising

Brampton Weather History for the Previous 24 Hours

 ConditionsComfort  
Time TempWeatherWind HumidityBarometerVisibility
3:00 PM
Thu, Feb 11
14 °FPassing clouds.17 mph44%30.12 "Hg15 mi
2:00 PM12 °FScattered clouds.22 mph44%30.11 "Hg15 mi
1:00 PM14 °FPartly sunny.18 mph44%30.10 "Hg15 mi
12:00 PM10 °FScattered clouds.10 mph56%30.09 "Hg15 mi
11:00 AM7 °FPassing clouds.7 mph61%30.09 "Hg15 mi
10:00 AM5 °FPassing clouds.10 mph66%30.07 "Hg15 mi
9:00 AM3 °FPassing clouds.10 mph66%30.05 "Hg15 mi
8:00 AM3 °FPassing clouds.12 mph66%30.03 "Hg15 mi
7:00 AM3 °FPassing clouds.12 mph72%30.00 "Hg15 mi
6:00 AM5 °FPassing clouds.10 mph66%29.96 "Hg15 mi
5:00 AM5 °FPassing clouds.16 mph66%29.93 "Hg15 mi
4:00 AM7 °FPassing clouds.16 mph61%29.90 "Hg15 mi
3:00 AM9 °FPassing clouds.16 mph56%29.89 "Hg15 mi
2:00 AM9 °FPassing clouds.20 mph61%29.87 "Hg15 mi
1:00 AM10 °FPassing clouds.16 mph56%29.85 "Hg15 mi
12:00 AM12 °FPassing clouds.16 mph57%29.85 "Hg15 mi
11:00 PM
Wed, Feb 10
14 °FPassing clouds.15 mph62%29.84 "Hg15 mi
10:00 PM16 °FSnow flurries. Low clouds.13 mph73%29.83 "Hg5 mi
9:00 PM16 °FSnow flurries. Mostly cloudy.12 mph67%29.83 "Hg12 mi
8:00 PM16 °FPassing clouds.16 mph62%29.82 "Hg15 mi
7:45 PM18 °FPassing clouds.17 mph62%29.82 "Hg15 mi
7:00 PM18 °FSnow flurries. Passing clouds.16 mph68%29.80 "Hg12 mi
6:00 PM19 °FPartly cloudy.18 mph58%29.78 "Hg15 mi
5:00 PM19 °FSnow flurries. Overcast.18 mph68%29.75 "Hg9 mi
4:00 PM23 °FSnow flurries. More clouds than sun.14 mph58%29.71 "Hg15 mi
Weather by CustomWeather, © 2016

See weather overviewHow to use our weather pages